Time,TemperatureF,DewpointF,PressureIn,WindDirection,WindDirectionDegrees,WindSpeedMPH,WindSpeedGustMPH,Humidity,HourlyPrecipIn,Conditions,Clouds,dailyrainin,SoftwareType,DateUTC
2013-05-24 00:00:00,50.8,40.4,28.09,SE,131,2.5,15.9,91,0.00,,,-99.99,HOBO +U30 +Weather +,2013-05-24 07:00:00,
2013-05-24 00:15:00,50.8,40.7,28.10,SSE,147,1.3,4.5,93,0.00,,,-99.99,HOBO +U30 +Weather +,2013-05-24 07:15:00,
2013-05-24 00:30:00,50.7,40.6,28.09,South,187,0.4,2.9,93,0.00,,,-99.99,HOBO +U30 +Weather +,2013-05-24 07:30:00,
2013-05-24 00:45:00,50.7,40.6,28.09,SW,215,0.4,2.9,94,0.00,,,-99.99,HOBO +U30 +Weather +,2013-05-24 07:45:00,
2013-05-24 01:00:00,50.6,40.5,28.09,WSW,239,0.4,21.5,94,0.00,,,-99.99,HOBO +U30 +Weather +,2013-05-24 08:00:00,
2013-05-24 01:15:00,50.6,40.4,28.09,SSE,160,0.4,2.5,94,0.00,,,-99.99,HOBO +U30 +Weather +,2013-05-24 08:15:00,
2013-05-24 01:30:00,50.5,40.4,28.09,ESE,110,0.0,1.6,95,0.00,,,-99.99,HOBO +U30 +Weather +,2013-05-24 08:30:00,
2013-05-24 01:45:00,50.5,40.5,28.09,ESE,117,0.0,2.5,95,0.00,,,-99.99,HOBO +U30 +Weather +,2013-05-24 08:45:00,
2013-05-24 02:00:00,50.5,40.4,28.09,ESE,117,0.0,21.9,95,0.00,,,-99.99,HOBO +U30 +Weather +,2013-05-24 09:00:00,
2013-05-24 02:15:00,50.5,40.5,28.09,ESE,117,0.0,0.9,96,0.00,,,-99.99,HOBO +U30 +Weather +,2013-05-24 09:15:00,
2013-05-24 02:30:00,50.5,40.4,28.08,ESE,111,0.0,2.0,96,0.00,,,-99.99,HOBO +U30 +Weather +,2013-05-24 09:30:00,
2013-05-24 02:45:00,50.4,40.3,28.08,East,100,0.0,1.3,96,0.00,,,-99.99,HOBO +U30 +Weather +,2013-05-24 09:45:00,
2013-05-24 03:00:00,50.4,40.2,28.08,ENE,67,0.4,21.3,96,0.00,,,-99.99,HOBO +U30 +Weather +,2013-05-24 10:00:00,
2013-05-24 03:15:00,50.4,40.2,28.08,NE,41,0.0,0.9,96,0.00,,,-99.99,HOBO +U30 +Weather +,2013-05-24 10:15:00,
2013-05-24 03:30:00,50.3,40.2,28.08,NNE,15,0.0,0.0,96,0.00,,,-99.99,HOBO +U30 +Weather +,2013-05-24 10:30:00,
2013-05-24 03:45:00,50.3,40.6,28.09,North,0,0.0,0.0,96,0.00,,,-99.99,HOBO +U30 +Weather +,2013-05-24 10:45:00,
2013-05-24 04:00:00,50.3,40.1,28.09,North,0,0.0,0.0,96,0.00,,,-99.99,HOBO +U30 +Weather +,2013-05-24 11:00:00,
2013-05-24 04:15:00,50.2,40.4,28.09,North,0,0.0,0.9,96,0.00,,,-99.99,HOBO +U30 +Weather +,2013-05-24 11:15:00,
2013-05-24 04:30:00,50.2,40.0,28.09,North,0,0.0,21.5,96,0.00,,,-99.99,HOBO +U30 +Weather +,2013-05-24 11:30:00,
2013-05-24 04:45:00,50.2,40.4,28.09,North,0,0.0,21.5,97,0.00,,,-99.99,HOBO +U30 +Weather +,2013-05-24 11:45:00,
2013-05-24 05:00:00,50.1,39.9,28.09,North,0,0.0,21.5,97,0.00,,,-99.99,HOBO +U30 +Weather +,2013-05-24 12:00:00,
2013-05-24 05:15:00,50.1,39.9,28.10,North,0,0.0,20.8,97,0.05,,,-99.99,HOBO +U30 +Weather +,2013-05-24 12:15:00,
2013-05-24 05:30:00,50.1,40.1,28.10,North,0,0.0,18.6,97,0.00,,,-99.99,HOBO +U30 +Weather +,2013-05-24 12:30:00,
2013-05-24 05:54:00,50.1,39.5,28.10,North,0,0.0,18.6,97,0.00,,,-99.99,HOBO +U30 +Weather +,2013-05-24 12:54:00,
2013-05-24 06:00:00,50.1,39.7,28.11,North,0,0.0,17.9,97,0.00,,,-99.99,HOBO +U30 +Weather +,2013-05-24 13:00:00,
2013-05-24 06:15:00,50.0,40.0,28.11,North,0,0.0,17.9,97,0.00,,,-99.99,HOBO +U30 +Weather +,2013-05-24 13:15:00,
2013-05-24 06:30:00,50.0,40.4,28.11,North,354,0.9,21.9,97,0.00,,,-99.99,HOBO +U30 +Weather +,2013-05-24 13:30:00,
2013-05-24 06:45:00,50.0,40.7,28.11,SW,218,0.4,4.3,97,0.00,,,-99.99,HOBO +U30 +Weather +,2013-05-24 13:45:00,
2013-05-24 07:00:00,49.9,41.0,28.11,SW,222,0.4,27.3,97,0.00,,,-99.99,HOBO +U30 +Weather +,2013-05-24 14:00:00,
2013-05-24 07:15:00,49.9,41.5,28.11,SW,236,0.4,27.1,96,0.00,,,-99.99,HOBO +U30 +Weather +,2013-05-24 14:15:00,
2013-05-24 07:30:00,49.9,41.5,28.12,WNW,288,0.4,2.0,95,0.00,,,-99.99,HOBO +U30 +Weather +,2013-05-24 14:30:00,
2013-05-24 07:45:00,49.9,42.1,28.12,NW,312,0.4,26.2,94,0.00,,,-99.99,HOBO +U30 +Weather +,2013-05-24 14:45:00,
2013-05-24 08:00:00,49.8,42.7,28.12,WNW,289,0.0,1.3,93,0.00,,,-99.99,HOBO +U30 +Weather +,2013-05-24 15:00:00,
2013-05-24 08:15:00,49.8,42.1,28.13,WNW,289,0.0,1.3,92,0.00,,,-99.99,HOBO +U30 +Weather +,2013-05-24 15:15:00,
2013-05-24 08:30:00,49.8,43.0,28.12,WNW,282,0.0,2.0,93,0.00,,,-99.99,HOBO +U30 +Weather +,2013-05-24 15:30:00,
2013-05-24 08:45:00,49.8,43.1,28.13,WSW,247,0.4,24.2,90,0.00,,,-99.99,HOBO +U30 +Weather +,2013-05-24 15:45:00,
2013-05-24 09:00:00,49.9,43.9,28.13,WSW,239,1.3,21.5,89,0.00,,,-99.99,HOBO +U30 +Weather +,2013-05-24 16:00:00,
2013-05-24 09:15:00,49.9,42.4,28.13,SSW,204,1.3,18.6,85,0.00,,,-99.99,HOBO +U30 +Weather +,2013-05-24 16:15:00,
2013-05-24 09:30:00,49.9,42.8,28.13,ESE,121,1.3,4.3,80,0.00,,,-99.99,HOBO +U30 +Weather +,2013-05-24 16:30:00,
2013-05-24 09:45:00,50.0,43.5,28.13,SSW,201,1.3,25.7,81,0.00,,,-99.99,HOBO +U30 +Weather +,2013-05-24 16:45:00,
2013-05-24 10:00:00,50.0,44.8,28.14,SE,128,0.9,26.2,80,0.00,,,-99.99,HOBO +U30 +Weather +,2013-05-24 17:00:00,
2013-05-24 10:15:00,50.1,45.3,28.14,NW,317,1.3,21.9,79,0.00,,,-99.99,HOBO +U30 +Weather +,2013-05-24 17:15:00,
2013-05-24 10:30:00,50.1,42.8,28.14,ESE,115,1.6,4.5,76,0.00,,,-99.99,HOBO +U30 +Weather +,2013-05-24 17:30:00,
2013-05-24 10:45:00,50.2,43.2,28.14,WSW,247,1.6,4.9,74,0.00,,,-99.99,HOBO +U30 +Weather +,2013-05-24 17:45:00,
2013-05-24 11:00:00,50.3,41.5,28.14,SSW,195,2.9,16.6,70,0.00,,,-99.99,HOBO +U30 +Weather +,2013-05-24 18:00:00,
2013-05-24 11:15:00,50.5,42.5,28.14,SE,132,1.6,19.9,67,0.00,,,-99.99,HOBO +U30 +Weather +,2013-05-24 18:15:00,
2013-05-24 11:30:00,50.5,42.6,28.14,South,185,2.5,25.3,66,0.00,,,-99.99,HOBO +U30 +Weather +,2013-05-24 18:30:00,
2013-05-24 11:45:00,50.7,42.1,28.14,WSW,240,2.9,23.7,71,0.00,,,-99.99,HOBO +U30 +Weather +,2013-05-24 18:45:00,
2013-05-24 12:00:00,50.8,43.8,28.14,East,81,2.5,24.8,62,0.00,,,-99.99,HOBO +U30 +Weather +,2013-05-24 19:00:00,
2013-05-24 12:15:00,51.0,43.3,28.14,NE,45,2.5,7.8,66,0.00,,,-99.99,HOBO +U30 +Weather +,2013-05-24 19:15:00,
2013-05-24 12:30:00,51.1,42.5,28.14,WNW,299,2.5,10.1,66,0.00,,,-99.99,HOBO +U30 +Weather +,2013-05-24 19:30:00,
2013-05-24 12:45:00,51.3,42.8,28.15,NW,307,2.9,8.7,70,0.00,,,-99.99,HOBO +U30 +Weather +,2013-05-24 19:45:00,
2013-05-24 13:00:00,51.5,43.4,28.15,NNE,24,1.6,23.3,72,0.00,,,-99.99,HOBO +U30 +Weather +,2013-05-24 20:00:00,
2013-05-24 13:15:00,51.6,43.8,28.15,SE,140,2.5,4.5,77,0.00,,,-99.99,HOBO +U30 +Weather +,2013-05-24 20:15:00,
2013-05-24 13:30:00,51.8,45.0,28.15,ESE,108,2.5,29.1,78,0.00,,,-99.99,HOBO +U30 +Weather +,2013-05-24 20:30:00,
2013-05-24 13:45:00,51.9,45.2,28.15,East,95,1.6,25.3,82,0.00,,,-99.99,HOBO +U30 +Weather +,2013-05-24 20:45:00,
2013-05-24 14:00:00,52.0,45.1,28.16,ESE,118,3.4,18.6,83,0.00,,,-99.99,HOBO +U30 +Weather +,2013-05-24 21:00:00,
2013-05-24 14:15:00,52.2,45.5,28.16,SE,124,3.8,25.3,85,0.00,,,-99.99,HOBO +U30 +Weather +,2013-05-24 21:15:00,
2013-05-24 14:30:00,52.2,46.5,28.15,East,94,2.0,6.7,83,0.00,,,-99.99,HOBO +U30 +Weather +,2013-05-24 21:30:00,
2013-05-24 14:45:00,52.3,46.9,28.16,East,79,0.9,3.8,84,0.00,,,-99.99,HOBO +U30 +Weather +,2013-05-24 21:45:00,
2013-05-24 15:00:00,52.4,47.7,28.16,South,183,2.0,24.8,89,0.13,,,-99.99,HOBO +U30 +Weather +,2013-05-24 22:00:00,
2013-05-24 15:15:00,52.6,50.0,28.16,NE,55,1.6,4.5,87,0.05,,,-99.99,HOBO +U30 +Weather +,2013-05-24 22:15:00,
2013-05-24 15:30:00,52.7,45.7,28.17,SE,143,2.0,24.2,81,0.00,,,-99.99,HOBO +U30 +Weather +,2013-05-24 22:30:00,
2013-05-24 15:45:00,52.8,48.6,28.16,ENE,77,2.0,7.4,88,0.05,,,-99.99,HOBO +U30 +Weather +,2013-05-24 22:45:00,
2013-05-24 16:00:00,52.9,45.8,28.16,ESE,105,2.5,22.8,75,0.00,,,-99.99,HOBO +U30 +Weather +,2013-05-24 23:00:00,
2013-05-24 16:15:00,53.0,46.8,28.16,ESE,118,2.9,7.2,74,0.00,,,-99.99,HOBO +U30 +Weather +,2013-05-24 23:15:00,
2013-05-24 16:30:00,53.1,46.8,28.16,South,184,2.9,14.1,74,0.00,,,-99.99,HOBO +U30 +Weather +,2013-05-24 23:30:00,
2013-05-24 16:45:00,53.2,47.1,28.16,SE,131,2.9,6.7,72,0.00,,,-99.99,HOBO +U30 +Weather +,2013-05-24 23:45:00,
2013-05-24 17:00:00,53.3,47.6,28.16,SSE,166,3.4,14.5,75,0.00,,,-99.99,HOBO +U30 +Weather +,2013-05-25 00:00:00,
2013-05-24 17:15:00,53.5,45.4,28.16,SSE,157,2.5,23.3,73,0.00,,,-99.99,HOBO +U30 +Weather +,2013-05-25 00:15:00,
2013-05-24 17:30:00,53.7,45.8,28.16,SE,132,2.9,25.7,74,0.00,,,-99.99,HOBO +U30 +Weather +,2013-05-25 00:30:00,
2013-05-24 17:45:00,53.8,45.5,28.16,SSW,211,3.4,13.0,75,0.00,,,-99.99,HOBO +U30 +Weather +,2013-05-25 00:45:00,
2013-05-24 18:00:00,53.9,46.1,28.16,SW,226,2.0,13.2,78,0.00,,,-99.99,HOBO +U30 +Weather +,2013-05-25 01:00:00,
2013-05-24 18:15:00,54.0,47.0,28.17,North,3,1.3,24.8,82,0.00,,,-99.99,HOBO +U30 +Weather +,2013-05-25 01:15:00,
2013-05-24 18:30:00,54.0,47.9,28.17,NNW,341,1.3,3.4,85,0.00,,,-99.99,HOBO +U30 +Weather +,2013-05-25 01:30:00,
2013-05-24 18:45:00,54.1,46.5,28.17,NNE,22,1.6,24.2,83,0.00,,,-99.99,HOBO +U30 +Weather +,2013-05-25 01:45:00,
2013-05-24 19:00:00,54.2,45.5,28.17,NNW,327,2.0,24.4,83,0.00,,,-99.99,HOBO +U30 +Weather +,2013-05-25 02:00:00,
2013-05-24 19:15:00,54.2,45.8,28.18,NNW,343,1.6,23.7,87,0.00,,,-99.99,HOBO +U30 +Weather +,2013-05-25 02:15:00,
2013-05-24 19:30:00,54.2,45.8,28.18,NNW,345,1.6,11.6,89,0.00,,,-99.99,HOBO +U30 +Weather +,2013-05-25 02:30:00,
2013-05-24 19:45:00,54.2,44.9,28.18,North,8,0.9,22.4,89,0.00,,,-99.99,HOBO +U30 +Weather +,2013-05-25 02:45:00,
2013-05-24 20:00:00,54.3,45.3,28.18,North,7,0.0,0.9,91,0.00,,,-99.99,HOBO +U30 +Weather +,2013-05-25 03:00:00,
2013-05-24 20:15:00,54.3,44.9,28.18,North,8,0.4,1.6,91,0.00,,,-99.99,HOBO +U30 +Weather +,2013-05-25 03:15:00,
2013-05-24 20:30:00,54.3,44.8,28.18,North,8,0.4,21.5,92,0.00,,,-99.99,HOBO +U30 +Weather +,2013-05-25 03:30:00,
2013-05-24 20:54:00,54.3,44.9,28.19,North,8,0.4,21.3,93,0.00,,,-99.99,HOBO +U30 +Weather +,2013-05-25 03:54:00,
2013-05-24 21:00:00,54.2,44.3,28.19,North,8,0.9,21.9,93,0.00,,,-99.99,HOBO +U30 +Weather +,2013-05-25 04:00:00,
2013-05-24 21:15:00,54.2,44.0,28.19,North,8,0.4,1.3,94,0.00,,,-99.99,HOBO +U30 +Weather +,2013-05-25 04:15:00,
2013-05-24 21:30:00,54.2,44.1,28.20,North,8,0.0,21.5,94,0.00,,,-99.99,HOBO +U30 +Weather +,2013-05-25 04:30:00,
2013-05-24 21:53:00,54.2,44.2,28.20,North,8,0.4,21.9,94,0.00,,,-99.99,HOBO +U30 +Weather +,2013-05-25 04:53:00,
2013-05-24 22:00:00,54.2,44.2,28.20,North,8,0.4,2.0,94,0.00,,,-99.99,HOBO +U30 +Weather +,2013-05-25 05:00:00,
2013-05-24 22:15:00,54.1,44.0,28.20,North,8,0.0,21.3,94,0.00,,,-99.99,HOBO +U30 +Weather +,2013-05-25 05:15:00,
2013-05-24 22:30:00,54.1,44.0,28.20,North,8,0.0,21.3,94,0.00,,,-99.99,HOBO +U30 +Weather +,2013-05-25 05:30:00,
2013-05-24 22:54:00,54.0,44.0,28.19,North,8,0.0,20.8,95,0.00,,,-99.99,HOBO +U30 +Weather +,2013-05-25 05:54:00,
2013-05-24 23:00:00,54.0,43.9,28.19,North,8,0.4,20.8,95,0.00,,,-99.99,HOBO +U30 +Weather +,2013-05-25 06:00:00,
2013-05-24 23:15:00,53.9,44.0,28.18,North,8,0.0,21.9,95,0.00,,,-99.99,HOBO +U30 +Weather +,2013-05-25 06:15:00,
2013-05-24 23:30:00,53.9,43.9,28.18,North,8,0.0,21.3,95,0.00,,,-99.99,HOBO +U30 +Weather +,2013-05-25 06:30:00,
2013-05-24 23:53:00,53.8,43.8,28.18,North,8,0.0,21.5,95,0.00,,,-99.99,HOBO +U30 +Weather +,2013-05-25 06:53:00,